Dewpoint
5 5 6 7 7 8 8 8 9 9 9 10 11 11 11 11 11 11 11 11 11 10 10 10 11 10 10 10 11 11 11 11 11 11 11 11 11 11 11 11 11 11
6 7 7 7 7 7 8 8 8 8 8 8 9 9 9 9 8 8 8 8 8 8 9 9 9 10 10 10 10 10 10 10 10 10 10 10 11 11 11 11 11 12
8 7 6 6 7 7 7 7 7 7 7 8 9 8 8 7 7 7 7 7 7 7 8 8 8 9 9 10 10 10 10 10 10 9 9 9 9 10 11 11 11 11
8 7 6 6 6 6 6 6 6 7 8 8 8 8 7 7 7 7 7 7 7 8 8 9 9 9 9 10 10 10 10 10 10 9 9 9 9 9 10 10 10 10
8 7 7 6 5 5 6 6 7 8 9 8 8 8 7 7 6 6 6 7 8 8 9 9 10 10 10 10 10 10 10 9 9 9 10 10 9 10 10 10 11 10
8 7 6 5 5 6 6 7 7 9 9 8 7 7 7 7 7 7 8 8 8 8 8 9 9 9 10 10 11 11 11 10 10 10 10 10 10 10 10 10 11 11
7 6 5 5 5 6 6 7 8 9 9 8 8 8 8 7 7 8 8 8 8 8 7 7 8 8 9 9 10 10 11 11 11 11 10 10 10 11 11 11 11 11
6 6 6 6 6 6 7 7 8 9 9 9 9 8 8 7 7 8 8 8 8 8 8 8 8 8 8 8 8 9 10 11 11 11 11 11 11 11 11 11 11 11
6 6 6 6 7 8 8 8 8 9 9 9 9 9 8 7 7 8 7 7 8 8 8 8 9 9 9 9 8 8 8 9 10 10 10 11 11 11 11 11 11 11
5 6 6 6 7 8 9 8 9 9 9 9 9 9 9 8 7 8 8 7 7 7 8 8 8 8 9 9 9 8 8 8 9 10 10 10 10 11 11 11 11 11
5 6 6 6 6 7 8 8 9 9 9 9 9 9 9 8 8 8 8 7 7 7 7 7 7 8 9 10 9 9 9 10 11 11 11 11 11 11 11 11 11 11
5 6 6 5 4 4 6 7 8 8 8 9 9 9 9 8 8 9 8 6 6 6 5 5 5 6 8 8 8 8 8 9 10 11 11 11 11 12 12 12 11 11
6 6 5 4 3 3 3 5 6 8 8 8 9 9 9 9 9 9 7 6 6 6 4 4 4 5 7 8 8 8 8 8 8 9 9 10 10 11 12 12 12 12
6 5 5 4 4 3 2 3 5 7 8 8 9 9 9 9 9 9 7 6 6 6 4 4 5 6 8 8 9 8 9 9 9 8 8 9 9 10 11 12 12 11
5 5 5 5 5 4 3 3 4 6 7 8 9 9 9 9 9 9 7 6 7 6 5 4 6 7 8 9 9 8 9 10 10 9 9 8 8 9 10 12 12 12
5 5 5 6 6 6 6 5 5 6 7 8 8 9 9 9 9 8 7 7 7 7 6 5 6 7 8 9 8 9 10 10 10 10 10 9 9 9 9 11 12 12
6 6 6 6 6 7 7 7 7 6 7 8 9 9 8 9 8 8 7 7 7 7 7 6 7 8 9 8 8 9 10 10 10 11 12 11 10 9 9 10 11 12
8 7 7 6 6 6 6 8 8 7 7 8 8 8 8 8 8 7 7 7 7 7 7 7 8 9 9 8 8 9 10 9 9 9 10 12 12 11 10 11 11 11
8 8 7 6 5 4 4 6 7 7 7 7 8 8 8 7 7 7 7 7 7 7 8 9 9 9 8 7 8 9 9 8 8 7 8 10 11 12 12 12 12 12
9 8 7 5 3 2 2 3 5 6 7 7 8 8 7 7 7 7 7 7 7 7 8 9 10 9 8 7 7 8 9 8 7 7 7 8 9 11 11 12 12 12
9 8 6 4 3 2 3 3 4 7 7 7 8 8 7 7 7 7 7 6 6 7 8 9 10 9 8 7 7 7 8 8 7 7 7 7 9 10 10 11 11 11
9 8 5 4 4 4 4 4 6 7 8 7 8 8 7 7 7 7 6 6 6 6 8 9 9 8 7 7 7 6 7 7 8 7 7 7 9 10 10 11 11 11
10 8 5 5 5 5 5 5 6 7 8 7 7 8 7 7 7 6 6 6 5 6 8 9 8 8 7 6 6 6 7 7 7 8 7 6 7 9 10 11 11 11
9 7 5 5 5 5 5 6 6 7 7 7 7 7 7 7 7 6 6 7 5 5 8 9 8 7 7 5 4 6 6 6 7 8 7 5 5 6 8 9 10 11
7 6 5 5 5 5 5 6 6 7 7 7 6 6 7 7 6 6 6 7 7 5 6 8 8 7 6 5 4 4 5 6 7 8 8 6 5 5 6 7 8 10
6 6 6 6 6 5 5 6 7 7 7 6 5 6 7 7 6 6 7 8 7 6 4 5 8 8 6 6 6 4 4 4 6 8 9 7 6 6 7 6 6 8
Wind_Speed
17 16 16 17 18 18 19 20 20 20 19 18 17 17 17 17 17 18 19 21 22 24 26 27 27 25 25 24 23 24 24 24 26 28 29 30 30 30 31 32 33 34
15 15 15 16 17 18 18 19 19 20 20 19 19 18 18 17 18 18 19 21 23 24 26 27 28 28 27 27 28 29 29 29 31 32 32 33 33 32 32 32 32 32
15 15 15 16 17 18 19 19 19 19 19 19 19 18 18 18 18 18 18 20 21 23 25 26 28 29 30 29 30 31 32 32 33 34 36 36 35 35 34 34 34 33
16 16 16 16 18 19 19 20 20 19 18 18 18 18 19 19 19 19 19 19 20 22 23 24 26 28 30 30 30 31 33 34 35 36 36 37 37 37 36 35 36 36
16 17 17 17 19 19 20 20 20 19 18 17 17 17 18 18 20 21 21 21 20 21 21 21 23 24 26 28 28 28 30 33 35 35 36 36 36 36 35 35 37 38
16 17 17 19 20 20 21 20 20 18 17 17 17 17 18 19 20 21 21 22 22 21 21 20 20 21 23 24 25 26 28 30 33 34 35 35 36 36 36 35 36 38
15 17 18 19 20 21 22 20 19 17 17 18 18 18 18 19 19 20 20 22 22 22 22 21 21 21 22 23 24 24 26 27 30 32 33 35 36 37 37 37 39 39
15 16 17 19 20 22 21 19 18 17 16 17 18 17 17 17 18 19 20 22 23 23 22 22 23 24 24 24 25 25 25 26 26 28 31 33 35 37 38 38 40 40
14 16 17 18 19 20 20 19 17 16 16 17 17 16 16 16 18 19 20 22 23 24 23 23 25 26 26 26 26 26 26 27 27 28 29 31 33 36 37 38 39 40
13 15 16 17 19 19 19 19 17 16 16 17 19 18 17 17 18 20 21 22 22 23 24 25 26 29 29 29 28 27 27 27 27 27 29 30 31 34 36 37 39 40
12 14 15 16 18 19 20 20 18 17 17 19 20 21 20 18 18 19 21 22 21 21 23 24 27 30 30 29 28 28 28 27 26 25 27 28 29 31 34 36 37 39
12 14 15 16 18 19 20 20 19 18 19 20 21 21 20 18 17 19 22 23 21 20 21 23 24 27 28 29 30 31 31 29 27 26 28 28 27 27 30 34 37 37
12 13 14 16 18 19 19 19 19 19 19 20 20 20 18 17 17 18 21 22 20 20 22 23 24 25 27 29 32 33 33 31 29 28 27 27 27 26 26 30 35 37
11 12 14 16 18 19 20 19 19 19 19 19 19 19 17 17 17 18 19 19 19 20 22 23 25 26 28 29 32 34 34 33 32 30 27 26 27 27 25 26 30 35
10 12 14 16 18 19 19 19 19 19 19 18 18 18 17 17 17 17 18 18 18 19 21 23 25 27 27 28 31 34 36 35 32 29 28 27 26 26 26 25 27 31
10 12 14 16 17 18 18 19 19 19 19 18 17 16 16 17 17 16 17 17 18 19 19 21 23 24 24 26 30 33 35 34 30 28 27 27 27 27 26 26 27 28
11 13 15 15 16 17 18 19 19 19 19 17 16 16 16 17 17 16 16 17 17 19 19 19 21 20 20 24 29 31 33 33 30 27 27 26 26 27 27 26 27 29
13 14 15 16 17 18 18 19 19 20 20 18 16 16 17 17 17 17 17 16 17 19 19 20 20 19 20 24 27 29 31 33 33 31 30 27 23 23 25 26 28 30
15 16 16 17 18 19 19 19 20 21 20 18 16 16 16 16 17 17 16 16 16 18 20 20 21 20 21 24 26 27 29 32 35 34 33 30 23 18 19 21 25 27
16 17 17 18 19 20 20 19 20 20 18 16 16 16 15 16 16 15 15 15 16 17 19 20 21 22 22 24 25 26 28 31 34 35 34 32 27 21 17 16 19 24
17 17 17 19 20 20 18 17 18 18 16 15 15 15 15 15 14 14 15 16 17 18 17 17 19 21 22 23 24 26 28 30 33 35 36 32 28 25 20 16 18 23
17 17 18 19 20 20 17 16 16 16 15 15 15 15 14 13 13 15 16 16 18 18 16 15 16 19 22 23 24 25 27 30 31 34 36 34 29 25 20 16 17 20
16 16 17 19 20 19 17 16 15 15 15 15 16 15 13 13 14 15 15 16 18 17 16 14 15 17 20 22 23 24 25 28 30 32 35 36 32 26 22 21 24 26
15 15 16 18 18 17 15 14 14 14 14 15 16 16 14 13 15 15 15 17 18 17 15 15 14 16 19 20 22 24 25 26 28 29 32 35 35 32 27 24 25 26
14 14 14 15 15 14 14 14 14 13 14 14 15 15 13 13 14 14 15 17 19 18 16 16 16 16 18 19 21 23 25 26 26 26 28 33 36 37 35 29 25 24
13 14 14 13 13 13 13 14 14 14 15 15 15 14 12 12 13 13 14 17 19 19 18 18 18 17 18 19 20 21 23 25 26 25 25 29 33 35 37 36 32 27
Wind_Direction
325 328 331 330 329 328 328 330 331 332 333 331 328 325 320 314 307 302 298 295 292 290 288 287 284 278 271 265 260 258 258 259 261 265 269 271 271 269 265 262 259 257
326 329 330 329 328 329 329 331 332 331 331 330 329 326 323 319 314 308 303 298 294 291 289 287 284 280 274 267 262 261 262 261 262 265 267 269 271 271 267 262 260 258
325 328 330 330 331 331 329 329 329 328 327 326 326 326 324 322 320 317 313 307 301 296 292 289 286 283 280 273 267 264 264 265 266 266 268 268 268 268 266 262 258 256
325 328 331 334 333 332 330 329 328 328 328 328 328 327 327 329 329 327 324 318 311 305 299 295 290 287 285 281 276 271 268 267 268 267 267 267 265 264 263 263 260 256
325 328 333 334 333 331 330 330 331 332 333 337 337 335 334 335 335 332 329 326 323 318 313 307 301 295 291 288 284 279 274 270 269 268 267 266 264 261 259 259 259 257
323 327 329 329 329 329 329 329 331 332 334 337 338 337 337 336 336 336 336 337 337 333 327 320 313 307 301 296 291 285 280 275 272 270 267 266 265 261 257 256 257 257
320 323 325 325 327 328 327 326 326 326 327 329 331 333 334 336 339 340 341 341 342 340 334 329 323 317 309 303 297 291 286 282 277 273 270 267 265 262 259 257 256 256
317 320 322 325 329 330 328 324 321 321 321 323 328 332 332 336 340 339 338 338 339 339 337 334 331 325 317 309 301 295 290 286 282 278 275 272 268 264 261 259 258 258
312 317 320 326 334 336 334 329 322 319 320 322 326 328 329 333 335 334 335 334 336 336 334 332 331 328 324 317 309 301 294 289 287 284 281 277 272 267 262 258 257 258
310 316 320 329 338 340 339 338 332 325 324 323 323 322 321 325 329 330 332 331 331 333 331 330 330 328 324 320 317 311 303 296 293 289 285 281 276 270 264 259 257 256
314 318 322 331 339 340 340 341 340 335 330 325 322 319 315 317 320 324 330 331 331 333 333 331 331 331 328 326 325 322 315 309 302 297 294 289 282 273 265 260 257 256
318 322 327 332 336 337 336 337 339 337 333 329 326 322 319 316 313 318 327 331 333 338 337 335 335 336 335 334 332 329 324 318 310 302 298 295 291 281 268 260 257 256
320 325 332 334 333 332 331 331 332 333 331 329 328 326 325 321 316 320 326 330 337 343 340 336 336 335 334 334 332 331 328 323 316 307 299 294 293 289 276 263 257 254
320 326 331 332 330 329 327 326 327 327 327 325 323 324 325 324 323 324 326 329 337 343 340 336 333 328 326 329 331 331 331 328 321 314 305 295 291 287 279 267 258 253
320 324 327 329 330 329 326 323 321 322 323 321 318 319 322 324 325 323 324 327 333 339 340 336 330 323 322 330 335 335 334 333 328 320 312 303 293 284 274 268 262 254
323 324 325 327 331 331 327 323 320 318 319 318 315 316 320 325 325 323 323 324 328 334 334 333 332 325 325 336 342 340 340 340 335 328 320 310 299 287 273 264 264 261
323 321 321 323 326 326 324 322 321 318 317 314 312 314 318 321 322 323 324 323 323 325 325 328 331 329 335 346 348 348 352 356 352 342 330 317 304 294 282 269 263 263
319 316 315 316 316 317 319 319 319 318 316 311 308 310 314 318 320 322 325 324 321 319 321 326 330 333 344 353 353 354 358 2 2 356 344 330 310 295 291 285 276 273
314 312 310 310 310 313 315 315 317 318 317 311 305 306 311 317 320 322 325 324 322 321 322 325 332 340 348 352 352 353 355 359 3 2 356 348 331 302 290 290 285 281
308 310 307 306 308 312 311 312 316 318 318 312 304 304 311 318 321 324 327 328 330 330 328 329 336 342 346 349 352 352 353 358 3 4 2 360 350 331 306 289 283 279
302 305 304 305 311 314 312 312 315 317 317 312 304 306 315 320 323 327 330 334 338 336 334 336 339 339 343 350 353 351 352 357 2 5 6 6 2 352 335 315 305 298
298 301 303 307 312 314 312 312 313 314 314 310 305 310 317 319 325 332 333 335 337 335 335 339 339 338 343 352 354 350 352 357 2 7 9 11 11 5 359 3 3 350
294 295 302 308 311 312 311 310 311 310 310 310 309 313 316 316 325 335 335 333 334 334 334 338 341 339 342 352 356 352 352 359 3 7 11 14 16 13 11 23 30 24
287 290 302 309 312 314 313 311 311 309 309 312 314 315 315 314 322 332 335 334 335 335 335 337 341 341 343 351 359 358 357 2 6 7 11 16 19 18 16 19 24 24
281 286 299 307 313 318 319 317 316 313 312 316 318 316 314 313 318 327 334 338 339 337 335 334 335 339 345 351 359 1 2 6 8 7 11 17 19 18 18 19 21 23
281 284 291 299 307 316 321 319 316 315 316 318 319 317 312 310 315 320 327 335 340 339 334 329 330 336 342 347 354 360 3 8 11 7 8 15 19 18 17 18 22 26
Height
1537 1536 1535 1534 1533 1531 1530 1529 1527 1525 1524 1522 1521 1520 1519 1518 1518 1517 1516 1515 1515 1514 1513 1512 1512 1512 1512 1512 1512 1512 1511 1512 1512 1512 1512 1511 1512 1512 1512 1513 1513 1513
1536 1535 1534 1533 1532 1531 1529 1528 1526 1524 1522 1521 1520 1518 1517 1516 1515 1515 1514 1513 1512 1511 1509 1508 1507 1507 1507 1507 1507 1507 1507 1508 1508 1508 1508 1507 1507 1508 1508 1509 1509 1509
1535 1534 1533 1532 1530 1529 1528 1526 1525 1523 1521 1520 1518 1517 1516 1514 1513 1512 1511 1510 1509 1508 1506 1505 1503 1502 1502 1502 1502 1502 1502 1502 1503 1503 1503 1502 1502 1503 1503 1504 1505 1505
1533 1532 1532 1531 1529 1528 1526 1524 1523 1521 1520 1519 1517 1516 1514 1513 1512 1510 1509 1508 1507 1505 1504 1502 1501 1499 1498 1497 1497 1497 1497 1497 1497 1498 1498 1497 1498 1498 1498 1499 1500 1500
1532 1531 1530 1529 1528 1526 1525 1523 1521 1520 1518 1517 1516 1515 1513 1512 1510 1509 1507 1506 1504 1503 1501 1500 1499 1497 1495 1494 1493 1493 1493 1492 1492 1493 1492 1492 1492 1493 1493 1494 1494 1495
1531 1530 1529 1528 1526 1525 1523 1522 1520 1519 1517 1516 1515 1514 1512 1511 1509 1508 1506 1505 1503 1501 1500 1498 1497 1495 1494 1493 1491 1490 1489 1488 1488 1488 1487 1487 1487 1488 1488 1489 1489 1489
1530 1529 1528 1527 1525 1524 1522 1520 1519 1518 1516 1515 1514 1513 1512 1510 1509 1507 1505 1504 1502 1500 1498 1496 1495 1494 1492 1491 1489 1488 1486 1485 1484 1483 1482 1482 1482 1482 1482 1483 1483 1484
1529 1528 1527 1526 1525 1523 1521 1519 1518 1516 1515 1514 1513 1512 1511 1509 1508 1506 1505 1503 1500 1498 1496 1494 1493 1491 1490 1488 1487 1485 1483 1482 1480 1479 1477 1477 1477 1476 1477 1477 1478 1478
1528 1527 1526 1525 1524 1522 1520 1518 1517 1515 1514 1513 1512 1511 1510 1508 1507 1505 1503 1501 1499 1497 1495 1493 1491 1489 1488 1486 1484 1482 1480 1478 1477 1475 1473 1472 1471 1471 1471 1472 1472 1473
1527 1526 1525 1523 1522 1521 1519 1517 1516 1514 1513 1512 1511 1509 1508 1507 1505 1504 1502 1499 1497 1495 1493 1492 1489 1487 1485 1483 1481 1478 1476 1474 1472 1470 1468 1467 1466 1465 1466 1466 1467 1467
1525 1524 1523 1522 1521 1519 1518 1516 1515 1513 1512 1511 1509 1508 1507 1505 1504 1502 1500 1498 1495 1493 1492 1490 1488 1486 1483 1481 1478 1476 1472 1470 1468 1466 1464 1462 1461 1460 1460 1460 1461 1461
1523 1523 1522 1520 1519 1518 1516 1515 1513 1512 1511 1510 1508 1507 1505 1504 1502 1500 1498 1496 1494 1492 1490 1488 1486 1484 1482 1479 1476 1473 1469 1465 1463 1461 1459 1457 1456 1455 1454 1454 1455 1456
1522 1521 1520 1519 1518 1516 1515 1513 1512 1511 1509 1508 1507 1505 1503 1502 1500 1498 1496 1494 1492 1490 1488 1486 1484 1482 1480 1477 1474 1470 1466 1461 1458 1456 1454 1452 1451 1449 1449 1449 1450 1451
1521 1520 1519 1518 1516 1514 1513 1512 1510 1509 1508 1506 1505 1503 1502 1500 1498 1496 1494 1492 1491 1488 1486 1484 1482 1480 1477 1474 1471 1467 1463 1458 1453 1451 1449 1448 1446 1445 1445 1444 1445 1445
1520 1519 1517 1516 1514 1513 1511 1510 1508 1507 1506 1504 1503 1502 1500 1499 1497 1495 1493 1491 1489 1487 1485 1483 1481 1478 1475 1472 1469 1465 1460 1455 1450 1447 1445 1443 1442 1441 1440 1440 1440 1441
1518 1517 1516 1514 1513 1511 1509 1508 1506 1505 1504 1502 1501 1500 1499 1497 1495 1493 1491 1490 1488 1485 1484 1482 1480 1477 1474 1470 1467 1463 1458 1452 1448 1444 1442 1440 1438 1437 1436 1435 1435 1436
1517 1515 1514 1513 1511 1510 1508 1506 1505 1503 1502 1500 1499 1498 1497 1495 1493 1491 1490 1488 1486 1483 1482 1480 1478 1475 1472 1469 1466 1462 1457 1451 1447 1443 1439 1437 1434 1433 1432 1432 1431 1432
1515 1514 1512 1511 1510 1508 1507 1505 1503 1501 1500 1498 1497 1496 1495 1493 1492 1490 1488 1486 1484 1481 1479 1478 1476 1473 1470 1468 1464 1461 1457 1452 1447 1443 1438 1435 1431 1428 1427 1427 1427 1427
1513 1512 1511 1509 1508 1506 1505 1503 1502 1500 1498 1496 1495 1494 1493 1491 1490 1488 1486 1484 1482 1480 1477 1476 1474 1471 1468 1466 1463 1460 1457 1452 1448 1444 1439 1434 1429 1426 1424 1423 1422 1422
1512 1510 1509 1508 1506 1504 1503 1501 1500 1498 1496 1495 1493 1492 1491 1490 1488 1487 1485 1483 1481 1479 1476 1474 1472 1470 1467 1465 1462 1459 1456 1452 1448 1444 1438 1433 1428 1424 1421 1419 1418 1418
1510 1509 1507 1506 1504 1503 1501 1499 1498 1497 1495 1493 1492 1490 1489 1488 1486 1485 1484 1482 1480 1478 1476 1474 1472 1470 1467 1464 1461 1458 1455 1451 1447 1443 1438 1433 1428 1423 1419 1416 1415 1414
1508 1507 1505 1504 1502 1501 1499 1498 1496 1495 1494 1492 1490 1489 1488 1486 1485 1484 1482 1480 1479 1477 1475 1473 1471 1469 1466 1464 1461 1458 1454 1451 1447 1443 1438 1434 1429 1424 1420 1416 1413 1411
1506 1505 1504 1502 1501 1499 1497 1496 1495 1493 1492 1491 1489 1488 1487 1485 1484 1482 1481 1479 1477 1476 1474 1472 1470 1468 1465 1463 1460 1457 1454 1450 1447 1443 1439 1435 1430 1426 1421 1417 1413 1410
1504 1503 1502 1500 1499 1497 1496 1494 1493 1491 1490 1489 1488 1486 1485 1484 1482 1481 1479 1477 1476 1474 1472 1470 1469 1467 1464 1462 1459 1457 1453 1450 1447 1444 1440 1437 1432 1427 1422 1418 1414 1411
1502 1501 1500 1499 1497 1495 1494 1493 1491 1490 1489 1488 1487 1485 1484 1483 1481 1479 1478 1476 1474 1472 1471 1469 1467 1465 1463 1461 1459 1456 1453 1450 1447 1444 1440 1437 1432 1428 1424 1420 1416 1413
1500 1500 1499 1497 1495 1494 1493 1492 1490 1489 1487 1486 1485 1484 1482 1481 1480 1478 1476 1475 1473 1471 1469 1467 1466 1464 1462 1460 1458 1456 1453 1450 1447 1444 1441 1437 1432 1428 1425 1421 1417 1413